Weather History for KGTF - January, 2015

Change the Weather History Date:

Sunday, January 4, 2015

  Actual Average Record
Temperature  
Mean Temperature -2 °F 24 °F  
Max Temperature 1 °F 35 °F 59 °F (2012)
Min Temperature -5 °F 14 °F -28 °F (1982)
Degree Days  
Heating Degree Days 67 41  
Month to date heating degree days 223 164  
Since 1 July heating degree days 3240 3381  
Cooling Degree Days 0 0  
Month to date cooling degree days 0 0  
Year to date cooling degree days 0 0  
Moisture  
Dew Point -7 °F    
Average Humidity 85    
Maximum Humidity 91    
Minimum Humidity 78    
Precipitation  
Precipitation 0.12 in 0.02 in 0.50 in (1907)
Month to date precipitation 0.32 0.07  
Year to date precipitation 0.32 0.07  
Snow  
Snow 1.10 in 0.30 in 5.00 in (1907)
Month to date snowfall 5.5 1.2  
Since 1 July snowfall 39.1 24.4  
Snow Depth 9.00 in    
Sea Level Pressure  
Sea Level Pressure 30.48 in    
Wind  
Wind Speed 5 mph (NE)    
Max Wind Speed 14 mph    
Max Gust Speed 15 mph    
Visibility 3 miles    
Events Snow    
T = Trace of Precipitation, MM = Missing Value Source: NWS Daily Summary

Daily Weather History Graph

Daily Weather History Graph

Search for Another Location

Airport or City:

Trip Planner

Search our weather history database for the weather conditions in past years. The results will help you decide how hot, cold, wet, or windy it might be!

Date:

Astronomy

Jan. 04, 2015 Rise Set
Actual Time 8:13 AM MST 4:48 PM MST
Civil Twilight 7:37 AM MST 5:23 PM MST
Nautical Twilight 6:58 AM MST 6:02 PM MST
Astronomical Twilight 6:21 AM MST 6:39 PM MST
Moon 4:56 PM MST (1/4) 7:23 AM MST (1/4)
Length of Visible Light 9h 46m
Length of Day
8h 35m
Full, 100% of the Moon is Illuminated
Jan 4
Full
Jan 4
Full
Jan 13
Last Quarter
Jan 20
New
Jan 26
First Quarter

Hourly Weather History & Observations

Time (MST) Temp. Windchill Dew Point Humidity Pressure Visibility Wind Dir Wind Speed Gust Speed Precip Events Conditions
12:53 AM -2.9 °F -13.3 °F -6.0 °F 87% 30.68 in 3.0 mi NNW 4.6 mph - 0.00 in Snow Light Snow
1:27 AM -2.2 °F -16.8 °F -5.8 °F 85% 30.38 in 2.5 mi NNW 8.1 mph - 0.00 in Snow Light Snow
1:43 AM -2.2 °F -15.6 °F -7.6 °F 78% 30.37 in 3.0 mi NNW 6.9 mph - 0.01 in Snow Light Snow
1:53 AM -2.9 °F -15.0 °F -7.1 °F 82% 30.66 in 4.0 mi North 5.8 mph - 0.01 in Snow Light Snow
2:53 AM -2.9 °F -11.2 °F -6.0 °F 87% 30.70 in 4.0 mi NW 3.5 mph - 0.00 in Snow Light Snow
3:49 AM -2.2 °F -12.5 °F -7.6 °F 78% 30.39 in 2.5 mi NNE 4.6 mph - 0.00 in Snow Light Snow
3:53 AM -2.9 °F -13.3 °F -7.1 °F 82% 30.69 in 2.0 mi North 4.6 mph - 0.00 in Snow Light Snow
4:00 AM -2.2 °F -12.5 °F -7.6 °F 78% 30.39 in 1.8 mi North 4.6 mph - 0.01 in Snow Light Snow
4:10 AM -2.2 °F -14.2 °F -7.6 °F 78% 30.39 in 2.0 mi North 5.8 mph - 0.01 in Snow Light Snow
4:20 AM -2.2 °F -10.4 °F -7.6 °F 78% 30.39 in 1.8 mi North 3.5 mph - 0.01 in Snow Light Snow
4:27 AM -2.2 °F -12.5 °F -7.6 °F 78% 30.38 in 2.0 mi NNE 4.6 mph - 0.01 in Snow Light Snow
4:53 AM -2.9 °F -11.2 °F -7.1 °F 82% 30.69 in 2.5 mi North 3.5 mph - 0.01 in Snow Light Snow
5:01 AM -2.2 °F -12.5 °F -7.6 °F 78% 30.38 in 3.0 mi NNW 4.6 mph - 0.01 in Snow Light Snow
5:20 AM -2.2 °F -14.2 °F -7.6 °F 78% 30.38 in 2.5 mi North 5.8 mph - 0.01 in Snow Light Snow
5:34 AM -4.0 °F -16.3 °F -7.6 °F 85% 30.38 in 3.0 mi North 5.8 mph - 0.01 in Snow Light Snow
5:48 AM -4.0 °F -14.6 °F -7.6 °F 85% 30.38 in 2.0 mi North 4.6 mph - 0.02 in Snow Light Snow
5:53 AM -2.9 °F -13.3 °F -7.1 °F 82% 30.69 in 2.0 mi North 4.6 mph - 0.02 in Snow Light Snow
6:40 AM -4.0 °F -14.6 °F -7.6 °F 85% 30.38 in 2.0 mi North 4.6 mph - 0.00 in Snow Light Snow
6:53 AM -4.0 °F -14.6 °F -7.1 °F 87% 30.69 in 1.5 mi North 4.6 mph - 0.01 in Snow Light Snow
7:13 AM -4.0 °F -12.4 °F -7.6 °F 85% 30.38 in 2.0 mi North 3.5 mph - 0.00 in Snow Light Snow
7:20 AM -2.2 °F -12.5 °F -7.6 °F 78% 30.38 in 1.8 mi NNE 4.6 mph - 0.01 in Snow Light Snow
7:46 AM -2.2 °F -10.4 °F -7.6 °F 78% 30.40 in 2.0 mi NNE 3.5 mph - 0.01 in Snow Light Snow
7:53 AM -2.9 °F -11.2 °F -7.1 °F 82% 30.71 in 2.0 mi NNE 3.5 mph - 0.01 in Snow Light Snow
8:25 AM -2.2 °F -12.5 °F -7.6 °F 78% 30.41 in 1.8 mi NNE 4.6 mph - 0.01 in Snow Light Snow
8:53 AM -4.0 °F -17.8 °F -8.0 °F 83% 30.72 in 1.8 mi NE 6.9 mph - 0.02 in Snow Light Snow
9:00 AM -4.0 °F -17.8 °F -7.6 °F 85% 30.41 in 2.0 mi NE 6.9 mph - 0.00 in Snow Light Snow
9:09 AM -4.0 °F -16.3 °F -7.6 °F 85% 30.41 in 3.0 mi ENE 5.8 mph - 0.00 in Snow Light Snow
9:53 AM -5.1 °F -17.6 °F -9.0 °F 83% 30.73 in 2.5 mi ENE 5.8 mph - 0.00 in Snow Light Snow
10:02 AM -4.0 °F -16.3 °F -9.4 °F 78% 30.42 in 3.0 mi ENE 5.8 mph - 0.00 in Snow Light Snow
10:53 AM -4.0 °F -14.6 °F -8.0 °F 83% 30.75 in 3.0 mi ENE 4.6 mph - 0.00 in Snow Light Snow
11:07 AM -2.2 °F -14.2 °F -7.6 °F 78% 30.43 in 2.5 mi ENE 5.8 mph - 0.00 in Snow Light Snow
11:24 AM -2.2 °F -12.5 °F -7.6 °F 78% 30.43 in 1.5 mi ESE 4.6 mph - 0.01 in Snow Light Snow
11:30 AM -2.2 °F -12.5 °F -7.6 °F 78% 30.43 in 0.8 mi East 4.6 mph - 0.01 in Snow Light Snow
11:53 AM -4.0 °F -14.6 °F -8.0 °F 83% 30.74 in 0.8 mi East 4.6 mph - 0.01 in Snow Light Snow
12:05 PM -2.2 °F -10.4 °F -7.6 °F 78% 30.42 in 1.0 mi East 3.5 mph - 0.01 in Snow Light Snow
12:20 PM -2.2 °F - -7.6 °F 78% 30.43 in 3.0 mi Calm Calm - 0.01 in Snow Light Snow
12:28 PM -2.2 °F -10.4 °F -7.6 °F 78% 30.43 in 2.0 mi NE 3.5 mph - 0.01 in Snow Light Snow
12:35 PM -2.2 °F -12.5 °F -7.6 °F 78% 30.43 in 1.5 mi NE 4.6 mph - 0.01 in Snow Light Snow
12:43 PM -2.2 °F -12.5 °F -7.6 °F 78% 30.42 in 1.2 mi ESE 4.6 mph - 0.01 in Snow Light Snow
12:53 PM -4.0 °F -12.4 °F -8.0 °F 83% 30.75 in 1.2 mi ESE 3.5 mph - 0.01 in Snow Light Snow
1:01 PM -4.0 °F -14.6 °F -7.6 °F 85% 30.43 in 1.5 mi ESE 4.6 mph - 0.01 in Snow Light Snow
1:19 PM -4.0 °F -12.4 °F -7.6 °F 85% 30.43 in 1.2 mi ESE 3.5 mph - 0.01 in Snow Light Snow
1:36 PM -4.0 °F -14.6 °F -7.6 °F 85% 30.43 in 1.5 mi ESE 4.6 mph - 0.01 in Snow Light Snow
1:53 PM -4.0 °F -12.4 °F -8.0 °F 83% 30.75 in 1.5 mi ESE 3.5 mph - 0.01 in Snow Light Snow
2:09 PM -2.2 °F -12.5 °F -7.6 °F 78% 30.43 in 1.5 mi ESE 4.6 mph - 0.00 in   Haze
2:30 PM -4.0 °F -16.3 °F -7.6 °F 85% 30.43 in 5.0 mi ESE 5.8 mph - 0.00 in   Overcast
2:53 PM -4.0 °F -17.8 °F -9.0 °F 79% 30.74 in 6.0 mi ESE 6.9 mph - 0.00 in   Haze
3:53 PM -4.0 °F -14.6 °F -8.0 °F 83% 30.73 in 10.0 mi ESE 4.6 mph - N/A   Mostly Cloudy
4:53 PM -4.0 °F -12.4 °F -8.0 °F 83% 30.69 in 10.0 mi SE 3.5 mph - N/A   Clear
5:53 PM -4.0 °F -14.6 °F -9.0 °F 79% 30.65 in 10.0 mi East 4.6 mph - N/A   Clear
6:53 PM -2.9 °F -13.3 °F -8.0 °F 79% 30.60 in 10.0 mi East 4.6 mph - N/A   Clear
7:53 PM -2.0 °F -13.9 °F -7.1 °F 79% 30.53 in 10.0 mi East 5.8 mph - N/A   Overcast
8:40 PM -2.2 °F -16.8 °F -5.8 °F 85% 30.17 in 2.0 mi East 8.1 mph - 0.00 in Snow Light Snow
8:53 PM -2.0 °F -16.6 °F -6.0 °F 83% 30.46 in 2.0 mi East 8.1 mph - 0.01 in Snow Light Snow
9:05 PM -0.4 °F -14.7 °F -5.8 °F 78% 30.14 in 3.0 mi East 8.1 mph - 0.00 in Snow Light Snow
9:53 PM -0.9 °F -12.7 °F -5.1 °F 83% 30.38 in 10.0 mi East 5.8 mph - 0.00 in   Overcast
10:35 PM -0.4 °F -14.7 °F -4.0 °F 85% 30.03 in 5.0 mi East 8.1 mph - N/A   Overcast
10:53 PM -0.0 °F -15.3 °F -2.9 °F 88% 30.30 in 10.0 mi East 9.2 mph - N/A   Overcast
11:53 PM 1.0 °F -15.8 °F -2.0 °F 87% 30.23 in 10.0 mi ESE 11.5 mph - N/A   Overcast